WetterOnline ( http://www.wetteronline.ch )

Wetter aktuell Pinneberg

Aktuelles Wetter: Quickborn (17m)

6-stündlich | Neueste Meldungen
Ortszeit Temperatur Wetter
Sa, 16.02. 19:00 4.9° C wolkig
Sa, 16.02. 13:00 12.1° C leicht bewölkt
Sa, 16.02. 7:00 4.5° C wolkenlos
Sa, 16.02. 1:00 3.8° C wolkenlos
Fr, 15.02. 19:00 4.6° C wolkenlos
Fr, 15.02. 13:00 12.6° C leicht bewölkt
Fr, 15.02. 7:00 -2.9° C fast wolkenlos
Fr, 15.02. 1:00 -1.4° C wolkenlos
Ortszeit Temperatur Wetter
Sa, 16.02. 20:30 2.7° C wolkig
Sa, 16.02. 20:20 2.7° C wolkig
Sa, 16.02. 20:10 2.8° C wolkig
Sa, 16.02. 20:00 3.8° C wolkig
Sa, 16.02. 19:50 3.8° C wolkig
Sa, 16.02. 19:40 4.0° C wolkig
Sa, 16.02. 19:30 3.3° C wolkig
Sa, 16.02. 19:00 4.9° C wolkig
Sa, 16.02. 18:00 9.9° C wolkig
Sa, 16.02. 17:00 11.8° C wolkig
Ortszeit Relative Feuchte Sichtweite
Sa, 16.02. 19:00 81% 16 km
Sa, 16.02. 13:00 50% 27 km
Sa, 16.02. 7:00 64% 50 km
Sa, 16.02. 1:00 75% 45 km
Fr, 15.02. 19:00 71% 55 km
Fr, 15.02. 13:00 38% 50 km
Fr, 15.02. 7:00 95% 6 km
Fr, 15.02. 1:00 96% 3.7 km
Ortszeit Relative Feuchte Sichtweite
Sa, 16.02. 20:30 90% 12 km
Sa, 16.02. 20:20 90% -
Sa, 16.02. 20:10 88% -
Sa, 16.02. 20:00 87% 15 km
Sa, 16.02. 19:50 87% -
Sa, 16.02. 19:40 87% -
Sa, 16.02. 19:30 86% 15 km
Sa, 16.02. 19:00 81% 16 km
Sa, 16.02. 18:00 63% 23 km
Sa, 16.02. 17:00 57% 27 km
Ortszeit Niederschlagsmenge Niederschlagsart
Sa, 16.02. 19:00 0.0 l/m2 in 12 Std. -
Sa, 16.02. 13:00 0.0 l/m2 in 6 Std. -
Sa, 16.02. 7:00 0.0 l/m2 in 12 Std. -
Sa, 16.02. 1:00 0.0 l/m2 in 6 Std. -
Fr, 15.02. 19:00 0.0 l/m2 in 12 Std. -
Fr, 15.02. 13:00 0.0 l/m2 in 6 Std. -
Fr, 15.02. 7:00 0.0 l/m2 in 12 Std. -
Fr, 15.02. 1:00 0.0 l/m2 in 6 Std. -
Ortszeit Niederschlagsmenge Niederschlagsart
Sa, 16.02. 20:30 0.0 l/m2 in 1 Std. -
Sa, 16.02. 20:20 keine Meldung -
Sa, 16.02. 20:10 keine Meldung -
Sa, 16.02. 20:00 0.0 l/m2 in 1 Std. -
Sa, 16.02. 19:50 keine Meldung -
Sa, 16.02. 19:40 keine Meldung -
Sa, 16.02. 19:30 0.0 l/m2 in 1 Std. -
Sa, 16.02. 19:00 0.0 l/m2 in 1 Std. -
Sa, 16.02. 18:00 keine Meldung -
Sa, 16.02. 17:00 keine Meldung -
Ortszeit Stärke Spitze Richtung
km/h Bft. km/h Grad Sektor
Sa, 16.02. 19:00 6 1 30 190° S
Sa, 16.02. 13:00 17 3 30 220° SW
Sa, 16.02. 7:00 7 2 11 180° S
Sa, 16.02. 1:00 6 1 7 170° S
Fr, 15.02. 19:00 4 1 14 170° S
Fr, 15.02. 13:00 9 2 17 170° S
Fr, 15.02. 7:00 2 1 6 60° NO
Fr, 15.02. 1:00 0 0 7 - -
Ortszeit Stärke Spitze Richtung
km/h Bft. km/h Grad Sektor
Sa, 16.02. 20:30 4 1 7 180° S
Sa, 16.02. 20:20 4 1 - 180° S
Sa, 16.02. 20:10 4 1 - 160° S
Sa, 16.02. 20:00 0 0 11 - -
Sa, 16.02. 19:50 0 0 - 320° NW
Sa, 16.02. 19:40 4 1 - 220° SW
Sa, 16.02. 19:30 7 2 11 200° S
Sa, 16.02. 19:00 6 1 11 190° S
Sa, 16.02. 18:00 7 2 14 230° SW
Sa, 16.02. 17:00 11 2 18 220° SW
Ortszeit Untergrenze Bedeckung Gattung
total tief tief mittel hoch
Sa, 16.02. 19:00 8100 m 8/8 0/8 - - -
Sa, 16.02. 13:00 9000 m 7/8 0/8 - - -
Sa, 16.02. 7:00 - 0/8 0/8 - - -
Sa, 16.02. 1:00 - 0/8 0/8 - - -
Fr, 15.02. 19:00 - 0/8 0/8 - - -
Fr, 15.02. 13:00 10500 m 6/8 0/8 - - -
Fr, 15.02. 7:00 10500 m 2/8 0/8 - - -
Fr, 15.02. 1:00 - 0/8 0/8 - - -
Ortszeit Bedeckungsgrad in Achtel und Wolkenuntergrenze
Sa, 16.02. 20:30 7(8400m) 8(9000m) 8(10500m)
Sa, 16.02. 20:20 7(8400m) 8(9000m) 8(10500m)
Sa, 16.02. 20:10 7(8400m) 8(9000m) 8(10500m)
Sa, 16.02. 20:00 8(8400m) 8(9000m) 8(10500m)
Sa, 16.02. 19:50 8(8400m) 8(9000m) 8(10500m)
Sa, 16.02. 19:40 8(8100m) 8(9000m) 8(10500m)
Sa, 16.02. 19:30 8(8100m) 8(9000m) 8(10500m)
Sa, 16.02. 19:00 8(8100m) 8(9000m) 8(10500m)
Sa, 16.02. 18:00 8(8400m) 8(10500m) 8(10500m)
Sa, 16.02. 17:00 8(8100m) 8(9000m) 8(9000m)
Ortszeit Luftdruck NN (hPa) Tendenz (hPa in 3 Std.)
Sa, 16.02. 19:00 1024 + 0,8
Sa, 16.02. 13:00 1024 - 0,1
Sa, 16.02. 7:00 1024 - 1,2
Sa, 16.02. 1:00 1027 - 1,1
Fr, 15.02. 19:00 1029 - 1,3
Fr, 15.02. 13:00 1033 - 1,1
Fr, 15.02. 7:00 1034 - 0,4
Fr, 15.02. 1:00 1034 + 0,3
Ortszeit Luftdruck NN (hPa) Tendenz (hPa in 3 Std.)
Sa, 16.02. 20:30 1024 + 0,7
Sa, 16.02. 20:20 1024 keine Meldung
Sa, 16.02. 20:10 1024 keine Meldung
Sa, 16.02. 20:00 1024 + 1,0
Sa, 16.02. 19:50 1024 keine Meldung
Sa, 16.02. 19:40 1024 keine Meldung
Sa, 16.02. 19:30 1024 + 0,8
Sa, 16.02. 19:00 1024 + 0,8
Sa, 16.02. 18:00 1023 + 0,3
Sa, 16.02. 17:00 1023 - 0,6
Ortszeit Schneehöhe (cm)
Sa, 16.02. 19:00 0
Sa, 16.02. 13:00 0
Sa, 16.02. 7:00 0
Sa, 16.02. 1:00 0
Fr, 15.02. 19:00 0
Fr, 15.02. 13:00 0
Fr, 15.02. 7:00 0
Fr, 15.02. 1:00 0
Ortszeit Schneehöhe (cm)
Sa, 16.02. 20:30 0
Sa, 16.02. 20:20 0
Sa, 16.02. 20:10 0
Sa, 16.02. 20:00 0
Sa, 16.02. 19:50 0
Sa, 16.02. 19:40 0
Sa, 16.02. 19:30 0
Sa, 16.02. 19:00 0
Sa, 16.02. 18:00 -
Sa, 16.02. 17:00 -
Link zu dieser Seite / Seite empfehlen

Das Wetter in ...